When you browse on this site, cookies collect data to enhance your experience and personalize the content and advertising you see.
Visit our Privacy Policy to learn more. By continuing to use the site, you agree to this use of cookies and data.
  • In Hungary
  • List of Countries
  • For 7 days
  • Water Temperature
  • Weather Map
  • News
  • Weather Widgets
  • user-avatar
    Login

    Hourly Weather Tilcara

    Today, 17 November, Sunday

    Time Temperature Precipitation Wind Pressure Humidity
    00:00 +12°C° 0 mm 1 mps 525 mmHg 70%
    01:00 +12°C° 0 mm 1 mps 524 mmHg 69%
    02:00 +12°C° 0 mm 1 mps 524 mmHg 72%
    03:00 +12°C° 0 mm 1 mps 523 mmHg 72%
    04:00 +12°C° 0 mm 1 mps 523 mmHg 72%
    05:00 +11°C° 0 mm 1 mps 523 mmHg 73%
    06:00 +13°C° 0 mm 1 mps 524 mmHg 67%
    07:00 +14°C° 0 mm 1 mps 525 mmHg 61%
    08:00 +14°C° 0 mm 0 mps 526 mmHg 56%
    09:00 +16°C° 0.4 mm 1 mps 526 mmHg 53%
    10:00 +17°C° 0.4 mm 2 mps 527 mmHg 51%
    11:00 +18°C° 0.4 mm 2 mps 527 mmHg 48%
    12:00 +18°C° 0.7 mm 3 mps 526 mmHg 51%
    13:00 +18°C° 0.7 mm 3 mps 526 mmHg 53%
    14:00 +18°C° 0.7 mm 4 mps 525 mmHg 56%
    15:00 +17°C° 0.7 mm 4 mps 525 mmHg 61%
    16:00 +16°C° 0.7 mm 3 mps 524 mmHg 66%
    17:00 +14°C° 0.7 mm 3 mps 524 mmHg 72%
    18:00 +13°C° 0.7 mm 3 mps 524 mmHg 73%
    19:00 +14°C° 0.7 mm 2 mps 525 mmHg 74%
    20:00 +13°C° 0.7 mm 1 mps 525 mmHg 75%
    21:00 +13°C° 0.3 mm 1 mps 525 mmHg 73%
    22:00 +13°C° 0.3 mm 2 mps 526 mmHg 71%
    23:00 +13°C° 0.3 mm 2 mps 526 mmHg 69%

    Tomorrow, 18 November, Monday

    Time Temperature Precipitation Wind Pressure Humidity
    00:00 +13°C° 0 mm 2 mps 525 mmHg 70%
    01:00 +12°C° 0 mm 2 mps 525 mmHg 70%
    02:00 +12°C° 0 mm 1 mps 524 mmHg 71%
    03:00 +12°C° 0 mm 1 mps 524 mmHg 72%
    04:00 +12°C° 0 mm 1 mps 524 mmHg 73%
    05:00 +10°C° 0 mm 0 mps 524 mmHg 74%
    06:00 +13°C° 0 mm 1 mps 525 mmHg 68%
    07:00 +14°C° 0 mm 1 mps 526 mmHg 63%
    08:00 +15°C° 0 mm 1 mps 527 mmHg 58%
    09:00 +16°C° 0.2 mm 2 mps 528 mmHg 53%
    10:00 +17°C° 0.2 mm 3 mps 528 mmHg 49%
    11:00 +18°C° 0.2 mm 3 mps 529 mmHg 44%
    12:00 +18°C° 0.1 mm 4 mps 528 mmHg 46%
    13:00 +18°C° 0.1 mm 4 mps 528 mmHg 47%
    14:00 +18°C° 0.1 mm 4 mps 527 mmHg 49%
    15:00 +17°C° 0.4 mm 4 mps 527 mmHg 52%
    16:00 +17°C° 0.4 mm 4 mps 526 mmHg 56%
    17:00 +16°C° 0.4 mm 3 mps 526 mmHg 59%
    18:00 +14°C° 0.2 mm 3 mps 526 mmHg 61%
    19:00 +14°C° 0.2 mm 2 mps 526 mmHg 64%
    20:00 +13°C° 0.2 mm 1 mps 527 mmHg 66%
    21:00 +13°C° 0.1 mm 1 mps 527 mmHg 67%
    22:00 +13°C° 0.1 mm 1 mps 527 mmHg 67%
    23:00 +13°C° 0.1 mm 1 mps 527 mmHg 68%

    Day after tomorrow, 19 November, Tuesday

    Time Temperature Precipitation Wind Pressure Humidity
    00:00 +13°C° 0 mm 1 mps 527 mmHg 69%
    01:00 +13°C° 0 mm 1 mps 526 mmHg 69%
    02:00 +12°C° 0 mm 1 mps 526 mmHg 70%
    03:00 +12°C° 0 mm 1 mps 526 mmHg 72%
    04:00 +12°C° 0 mm 1 mps 526 mmHg 73%
    05:00 +10°C° 0 mm 0 mps 525 mmHg 74%
    06:00 +12°C° 0 mm 1 mps 526 mmHg 70%
    07:00 +13°C° 0 mm 1 mps 527 mmHg 65%
    08:00 +14°C° 0 mm 1 mps 528 mmHg 61%
    09:00 +15°C° 0 mm 1 mps 528 mmHg 56%
    10:00 +16°C° 0 mm 2 mps 529 mmHg 51%
    11:00 +18°C° 0 mm 2 mps 529 mmHg 46%
    12:00 +18°C° 0.4 mm 2 mps 529 mmHg 46%
    13:00 +18°C° 0.4 mm 3 mps 528 mmHg 47%
    14:00 +18°C° 0.4 mm 3 mps 527 mmHg 47%
    15:00 +18°C° 0.8 mm 3 mps 527 mmHg 50%
    16:00 +17°C° 0.8 mm 3 mps 526 mmHg 54%
    17:00 +16°C° 0.8 mm 3 mps 525 mmHg 57%
    18:00 +16°C° 0.4 mm 2 mps 525 mmHg 59%
    19:00 +15°C° 0.4 mm 2 mps 526 mmHg 61%
    20:00 +14°C° 0.4 mm 1 mps 526 mmHg 63%
    21:00 +14°C° 0.1 mm 1 mps 526 mmHg 64%
    22:00 +14°C° 0.1 mm 1 mps 526 mmHg 64%
    23:00 +14°C° 0.1 mm 1 mps 526 mmHg 65%

    20 November, Wednesday

    Time Temperature Precipitation Wind Pressure Humidity
    00:00 +13°C° 0 mm 1 mps 526 mmHg 66%
    01:00 +13°C° 0 mm 1 mps 525 mmHg 68%
    02:00 +13°C° 0 mm 1 mps 525 mmHg 69%
    03:00 +12°C° 0 mm 1 mps 524 mmHg 70%
    04:00 +12°C° 0 mm 1 mps 524 mmHg 70%
    05:00 +12°C° 0 mm 1 mps 524 mmHg 71%
    06:00 +13°C° 0 mm 1 mps 525 mmHg 64%
    07:00 +15°C° 0 mm 1 mps 526 mmHg 58%
    08:00 +16°C° 0 mm 1 mps 527 mmHg 51%
    09:00 +18°C° 0 mm 1 mps 527 mmHg 47%
    10:00 +19°C° 0 mm 1 mps 528 mmHg 43%
    11:00 +20°C° 0 mm 1 mps 528 mmHg 39%
    12:00 +20°C° 0.4 mm 2 mps 528 mmHg 41%
    13:00 +20°C° 0.4 mm 2 mps 527 mmHg 42%
    14:00 +20°C° 0.4 mm 3 mps 527 mmHg 43%
    15:00 +19°C° 1 mm 3 mps 526 mmHg 46%
    16:00 +19°C° 1 mm 3 mps 526 mmHg 50%
    17:00 +18°C° 1 mm 3 mps 525 mmHg 53%
    18:00 +17°C° 0.9 mm 3 mps 525 mmHg 58%
    19:00 +16°C° 0.9 mm 3 mps 525 mmHg 63%
    20:00 +15°C° 0.9 mm 2 mps 524 mmHg 68%
    21:00 +14°C° 0.1 mm 2 mps 524 mmHg 68%
    22:00 +14°C° 0.1 mm 2 mps 524 mmHg 69%
    23:00 +14°C° 0.1 mm 2 mps 524 mmHg 69%

    21 November, Thursday

    Time Temperature Precipitation Wind Pressure Humidity
    00:00 +14°C° 0 mm 2 mps 524 mmHg 69%
    01:00 +14°C° 0 mm 2 mps 524 mmHg 69%
    02:00 +14°C° 0 mm 2 mps 523 mmHg 69%
    03:00 +13°C° 0 mm 2 mps 523 mmHg 69%
    04:00 +13°C° 0 mm 2 mps 523 mmHg 70%
    05:00 +13°C° 0 mm 1 mps 523 mmHg 71%
    06:00 +14°C° 0 mm 1 mps 524 mmHg 64%
    07:00 +16°C° 0 mm 1 mps 525 mmHg 58%
    08:00 +16°C° 0 mm 0 mps 526 mmHg 52%
    09:00 +19°C° 0.1 mm 1 mps 527 mmHg 48%
    10:00 +19°C° 0.1 mm 2 mps 527 mmHg 45%
    11:00 +20°C° 0.1 mm 2 mps 528 mmHg 41%
    12:00 +21°C° 0.3 mm 3 mps 527 mmHg 42%
    13:00 +21°C° 0.3 mm 3 mps 527 mmHg 42%
    14:00 +21°C° 0.3 mm 3 mps 526 mmHg 42%
    15:00 +21°C° 0.9 mm 3 mps 526 mmHg 46%
    16:00 +20°C° 0.9 mm 3 mps 525 mmHg 49%
    17:00 +19°C° 0.9 mm 3 mps 524 mmHg 53%
    18:00 +18°C° 0.4 mm 3 mps 524 mmHg 59%
    19:00 +17°C° 0.4 mm 3 mps 524 mmHg 65%
    20:00 +16°C° 0.4 mm 2 mps 524 mmHg 72%
    21:00 +15°C° 0.7 mm 2 mps 524 mmHg 74%
    22:00 +14°C° 0.7 mm 2 mps 524 mmHg 77%
    23:00 +13°C° 0.7 mm 2 mps 524 mmHg 79%

    22 November, Friday

    Time Temperature Precipitation Wind Pressure Humidity
    00:00 +13°C° 0.1 mm 1 mps 523 mmHg 78%
    01:00 +13°C° 0.1 mm 1 mps 523 mmHg 77%
    02:00 +12°C° 0.1 mm 0 mps 523 mmHg 76%
    03:00 +12°C° 0 mm 0 mps 523 mmHg 77%
    04:00 +12°C° 0 mm 0 mps 523 mmHg 77%
    05:00 +12°C° 0 mm 0 mps 523 mmHg 77%
    06:00 +14°C° 0.1 mm 1 mps 524 mmHg 74%
    07:00 +14°C° 0.1 mm 1 mps 525 mmHg 70%
    08:00 +15°C° 0.1 mm 2 mps 525 mmHg 67%
    09:00 +16°C° 0.7 mm 2 mps 526 mmHg 66%
    10:00 +16°C° 0.7 mm 2 mps 526 mmHg 65%
    11:00 +17°C° 0.7 mm 2 mps 526 mmHg 64%
    12:00 +17°C° 1.4 mm 3 mps 526 mmHg 64%
    13:00 +17°C° 1.4 mm 3 mps 525 mmHg 65%
    14:00 +17°C° 1.4 mm 3 mps 525 mmHg 65%
    15:00 +17°C° 0.8 mm 3 mps 524 mmHg 70%
    16:00 +15°C° 0.8 mm 4 mps 523 mmHg 74%
    17:00 +14°C° 0.8 mm 4 mps 523 mmHg 79%
    18:00 +13°C° 0.7 mm 3 mps 523 mmHg 81%
    19:00 +13°C° 0.7 mm 3 mps 523 mmHg 83%
    20:00 +13°C° 0.7 mm 2 mps 524 mmHg 85%
    21:00 +13°C° 1.4 mm 2 mps 524 mmHg 83%
    22:00 +13°C° 1.4 mm 2 mps 525 mmHg 80%
    23:00 +13°C° 1.4 mm 2 mps 525 mmHg 78%
    Show more